Tracking 30922 objects as of 2-Jul-2025
HD Live streaming from Space Station
objects crossing your sky now

STARLINK-33570

Track STARLINK-33570 now!
10-day predictions
STARLINK-33570 is classified as:


NORAD ID: 62776
Int'l Code: 2025-015U
Perigee: 481.3 km
Apogee: 483.3 km
Inclination: 53.2 °
Period: 94.1 minutes
Semi major axis: 6853 km
RCS: Unknown
Launch date: January 21, 2025
Source: United States (US)
Launch site: AIR FORCE WESTERN TEST RANGE (AFWTR)
Your satellite tracking list
STARLINK-4003
Track 1 satellite(s)




NASA's NSSDC Master Catalog

Two Line Element Set (TLE):
1 62776U 25015U   25182.87956835  .00012249  00000-0  42493-3 0  9993
2 62776  53.1617  47.2524 0001464  92.1230 267.9938 15.30206879 26024
Source of the keplerian elements: AFSPC